Time,TemperatureF,DewpointF,PressureIn,WindDirection,WindDirectionDegrees,WindSpeedMPH,WindSpeedGustMPH,Humidity,HourlyPrecipIn,Conditions,Clouds,dailyrainin,SolarRadiationWatts/m^2,SoftwareType,DateUTC
2013-06-13 00:00:00,58.5,54.9,29.85,South,171,0.0,0.0,88,0.00,,,0.00,0.0,meteohub,2013-06-13 04:00:00,
2013-06-13 00:01:00,58.5,55.2,29.85,South,171,0.0,0.0,89,0.00,,,0.00,0.0,meteohub,2013-06-13 04:01:00,
2013-06-13 00:02:00,58.5,55.2,29.85,South,171,0.0,0.0,89,0.00,,,0.00,0.0,meteohub,2013-06-13 04:02:00,
2013-06-13 00:03:00,58.5,55.2,29.85,South,171,0.0,0.0,89,0.00,,,0.00,0.0,meteohub,2013-06-13 04:03:00,
2013-06-13 00:08:00,58.3,55.0,29.85,South,171,0.0,0.0,89,0.00,,,0.00,0.0,meteohub,2013-06-13 04:08:00,
2013-06-13 00:13:00,58.3,55.0,29.84,South,171,0.0,0.0,89,0.00,,,0.00,0.0,meteohub,2013-06-13 04:13:00,
2013-06-13 00:18:00,58.1,54.9,29.84,South,171,0.0,0.0,89,0.00,,,0.00,0.0,meteohub,2013-06-13 04:18:00,
2013-06-13 00:24:00,58.1,54.9,29.84,South,171,0.0,0.0,89,0.00,,,0.00,0.0,meteohub,2013-06-13 04:24:00,
2013-06-13 00:29:00,58.1,54.5,29.84,South,171,0.0,0.0,88,0.00,,,0.00,0.0,meteohub,2013-06-13 04:29:00,
2013-06-13 00:34:00,58.3,54.7,29.84,South,171,0.0,0.0,88,0.00,,,0.00,0.0,meteohub,2013-06-13 04:34:00,
2013-06-13 00:39:00,58.3,54.7,29.84,South,171,0.0,0.0,88,0.00,,,0.00,0.0,meteohub,2013-06-13 04:39:00,
2013-06-13 00:44:00,58.3,55.0,29.84,South,171,0.0,0.0,89,0.00,,,0.00,0.0,meteohub,2013-06-13 04:44:00,
2013-06-13 00:49:00,58.3,54.7,29.85,South,171,0.0,0.0,88,0.00,,,0.00,0.0,meteohub,2013-06-13 04:49:00,
2013-06-13 00:54:00,58.3,55.0,29.85,South,171,0.0,2.0,89,0.00,,,0.00,0.0,meteohub,2013-06-13 04:54:00,
2013-06-13 00:59:00,58.3,54.7,29.84,South,171,0.0,2.0,88,0.00,,,0.00,0.0,meteohub,2013-06-13 04:59:00,
2013-06-13 01:04:00,58.3,54.7,29.84,South,171,0.0,2.0,88,0.00,,,0.00,0.0,meteohub,2013-06-13 05:04:00,
2013-06-13 01:09:00,58.3,54.5,29.84,South,171,0.0,1.0,87,0.00,,,0.00,0.0,meteohub,2013-06-13 05:09:00,
2013-06-13 01:14:00,58.3,54.7,29.84,South,171,0.0,1.0,88,0.00,,,0.00,0.0,meteohub,2013-06-13 05:14:00,
2013-06-13 01:19:00,58.3,54.7,29.84,South,171,0.0,0.0,88,0.00,,,0.00,0.0,meteohub,2013-06-13 05:19:00,
2013-06-13 01:24:00,58.3,54.7,29.84,South,171,0.0,1.0,88,0.00,,,0.00,0.0,meteohub,2013-06-13 05:24:00,
2013-06-13 01:30:00,58.3,54.5,29.84,SSE,166,0.0,1.0,87,0.00,,,0.00,0.0,meteohub,2013-06-13 05:30:00,
2013-06-13 01:35:00,58.3,54.1,29.83,SSE,166,0.0,1.0,86,0.00,,,0.00,0.0,meteohub,2013-06-13 05:35:00,
2013-06-13 01:40:00,58.3,53.8,29.83,SSE,166,0.0,1.0,85,0.00,,,0.00,0.0,meteohub,2013-06-13 05:40:00,
2013-06-13 01:45:00,58.5,54.7,29.83,SSE,166,0.0,1.0,87,0.00,,,0.00,0.0,meteohub,2013-06-13 05:45:00,
2013-06-13 01:50:00,58.5,54.7,29.82,SSE,166,0.0,1.0,87,0.00,,,0.00,0.0,meteohub,2013-06-13 05:50:00,
2013-06-13 01:55:00,58.5,54.7,29.82,SSE,166,0.0,1.0,87,0.00,,,0.00,0.0,meteohub,2013-06-13 05:55:00,
2013-06-13 02:00:00,58.3,54.5,29.82,SSE,166,0.0,1.0,87,0.00,,,0.00,0.0,meteohub,2013-06-13 06:00:00,
2013-06-13 02:05:00,58.3,54.7,29.82,SSE,166,0.0,1.0,88,0.00,,,0.00,0.0,meteohub,2013-06-13 06:05:00,
2013-06-13 02:10:00,58.3,54.5,29.82,SSE,166,0.0,1.0,87,0.00,,,0.00,0.0,meteohub,2013-06-13 06:10:00,
2013-06-13 02:15:00,58.3,54.5,29.81,SSE,161,0.0,2.0,87,0.00,,,0.00,0.0,meteohub,2013-06-13 06:15:00,
2013-06-13 02:20:00,58.3,54.1,29.81,SSE,161,0.0,2.0,86,0.00,,,0.00,0.0,meteohub,2013-06-13 06:20:00,
2013-06-13 02:25:00,58.3,54.5,29.81,SSE,161,0.0,2.0,87,0.00,,,0.00,0.0,meteohub,2013-06-13 06:25:00,
2013-06-13 02:30:00,58.3,54.1,29.81,SSE,161,0.0,2.0,86,0.00,,,0.00,0.0,meteohub,2013-06-13 06:30:00,
2013-06-13 02:35:00,58.3,54.1,29.82,SSE,161,0.0,2.0,86,0.00,,,0.00,0.0,meteohub,2013-06-13 06:35:00,
2013-06-13 02:41:00,58.1,53.6,29.82,SSE,162,0.0,1.0,85,0.00,,,0.00,0.0,meteohub,2013-06-13 06:41:00,
2013-06-13 02:46:00,58.3,53.4,29.82,SSE,162,0.0,1.0,84,0.00,,,0.00,0.0,meteohub,2013-06-13 06:46:00,
2013-06-13 02:51:00,58.3,54.1,29.81,SSE,162,0.0,1.0,86,0.00,,,0.00,0.0,meteohub,2013-06-13 06:51:00,
2013-06-13 02:56:00,58.5,54.7,29.81,SSE,162,0.0,1.0,87,0.00,,,0.00,0.0,meteohub,2013-06-13 06:56:00,
2013-06-13 03:01:00,58.5,54.3,29.81,SSE,156,1.0,1.0,86,0.00,,,0.00,0.0,meteohub,2013-06-13 07:01:00,
2013-06-13 03:06:00,58.5,54.7,29.81,SSE,156,0.0,2.0,87,0.00,,,0.00,0.0,meteohub,2013-06-13 07:06:00,
2013-06-13 03:11:00,58.3,54.1,29.81,SSE,159,1.0,2.0,86,0.00,,,0.00,0.0,meteohub,2013-06-13 07:11:00,
2013-06-13 03:16:00,57.9,54.1,29.81,SSE,159,0.0,2.0,87,0.00,,,0.00,0.0,meteohub,2013-06-13 07:16:00,
2013-06-13 03:21:00,57.7,54.0,29.81,SSE,159,0.0,2.0,87,0.00,,,0.00,0.0,meteohub,2013-06-13 07:21:00,
2013-06-13 03:26:00,57.6,53.8,29.81,SSE,159,0.0,2.0,87,0.00,,,0.00,0.0,meteohub,2013-06-13 07:26:00,
2013-06-13 03:31:00,57.2,53.6,29.81,SSE,159,0.0,1.0,88,0.00,,,0.00,0.0,meteohub,2013-06-13 07:31:00,
2013-06-13 03:36:00,56.8,53.2,29.81,SSE,159,0.0,0.0,88,0.00,,,0.00,0.0,meteohub,2013-06-13 07:36:00,
2013-06-13 03:41:00,56.7,53.4,29.81,SSE,159,0.0,0.0,89,0.00,,,0.00,0.0,meteohub,2013-06-13 07:41:00,
2013-06-13 03:47:00,56.3,53.4,29.81,SSE,159,0.0,0.0,90,0.00,,,0.00,0.0,meteohub,2013-06-13 07:47:00,
2013-06-13 03:52:00,55.9,53.1,29.81,SSE,159,0.0,0.0,90,0.00,,,0.00,0.0,meteohub,2013-06-13 07:52:00,
2013-06-13 03:57:00,55.6,53.1,29.81,SSE,159,0.0,0.0,91,0.00,,,0.00,0.0,meteohub,2013-06-13 07:57:00,
2013-06-13 04:02:00,55.4,53.1,29.81,SSE,159,0.0,0.0,92,0.00,,,0.00,0.0,meteohub,2013-06-13 08:02:00,
2013-06-13 04:07:00,55.2,52.9,29.81,SSE,159,0.0,0.0,92,0.00,,,0.00,0.0,meteohub,2013-06-13 08:07:00,
2013-06-13 04:12:00,55.2,53.2,29.81,SSE,159,0.0,0.0,93,0.00,,,0.00,0.0,meteohub,2013-06-13 08:12:00,
2013-06-13 04:17:00,55.2,53.2,29.81,SSE,159,0.0,0.0,93,0.00,,,0.00,0.0,meteohub,2013-06-13 08:17:00,
2013-06-13 04:22:00,55.4,53.4,29.80,SSE,159,0.0,0.0,93,0.00,,,0.00,0.0,meteohub,2013-06-13 08:22:00,
2013-06-13 04:27:00,55.6,54.0,29.80,SSE,159,0.0,0.0,94,0.00,,,0.00,0.0,meteohub,2013-06-13 08:27:00,
2013-06-13 04:32:00,55.8,54.1,29.80,SSE,159,0.0,0.0,94,0.00,,,0.00,0.0,meteohub,2013-06-13 08:32:00,
2013-06-13 04:37:00,55.9,54.3,29.80,SSE,159,0.0,1.0,94,0.00,,,0.00,0.0,meteohub,2013-06-13 08:37:00,
2013-06-13 04:42:00,56.1,54.5,29.80,SSE,159,0.0,1.0,94,0.00,,,0.00,0.0,meteohub,2013-06-13 08:42:00,
2013-06-13 04:47:00,56.1,53.8,29.80,SSE,159,0.0,1.0,92,0.00,,,0.00,0.0,meteohub,2013-06-13 08:47:00,
2013-06-13 04:52:00,56.1,53.8,29.79,SSE,159,0.0,0.0,92,0.00,,,0.00,0.0,meteohub,2013-06-13 08:52:00,
2013-06-13 04:57:00,56.1,53.8,29.79,SSE,159,0.0,0.0,92,0.00,,,0.00,0.0,meteohub,2013-06-13 08:57:00,
2013-06-13 05:02:00,56.1,53.8,29.80,SSE,159,0.0,0.0,92,0.00,,,0.00,0.0,meteohub,2013-06-13 09:02:00,
2013-06-13 05:07:00,56.1,53.8,29.79,SSE,159,0.0,0.0,92,0.00,,,0.00,0.0,meteohub,2013-06-13 09:07:00,
2013-06-13 05:12:00,56.1,53.8,29.80,SSE,159,0.0,0.0,92,0.00,,,0.00,0.0,meteohub,2013-06-13 09:12:00,
2013-06-13 05:17:00,55.9,53.6,29.80,SSE,159,0.0,0.0,92,0.00,,,0.00,0.0,meteohub,2013-06-13 09:17:00,
2013-06-13 05:22:00,55.9,53.6,29.80,SSE,159,0.0,0.0,92,0.00,,,0.00,0.0,meteohub,2013-06-13 09:22:00,
2013-06-13 05:27:00,55.9,53.6,29.80,SSE,159,0.0,0.0,92,0.00,,,0.00,5.0,meteohub,2013-06-13 09:27:00,
2013-06-13 05:32:00,55.9,54.0,29.81,SSE,159,0.0,0.0,93,0.00,,,0.00,0.0,meteohub,2013-06-13 09:32:00,
2013-06-13 05:37:00,55.9,54.0,29.80,SSE,159,0.0,0.0,93,0.00,,,0.00,0.0,meteohub,2013-06-13 09:37:00,
2013-06-13 05:42:00,55.9,54.0,29.81,SSE,159,0.0,0.0,93,0.00,,,0.00,0.0,meteohub,2013-06-13 09:42:00,
2013-06-13 05:47:00,55.9,54.0,29.81,SSE,159,0.0,0.0,93,0.00,,,0.00,0.0,meteohub,2013-06-13 09:47:00,
2013-06-13 05:52:00,55.8,53.8,29.81,SSE,159,0.0,0.0,93,0.00,,,0.00,0.0,meteohub,2013-06-13 09:52:00,
2013-06-13 05:57:00,55.8,53.8,29.81,SSE,159,0.0,0.0,93,0.00,,,0.00,0.0,meteohub,2013-06-13 09:57:00,
2013-06-13 06:02:00,55.8,54.1,29.81,SSE,159,0.0,0.0,94,0.00,,,0.00,5.0,meteohub,2013-06-13 10:02:00,
2013-06-13 06:07:00,55.8,54.1,29.81,SSE,159,0.0,0.0,94,0.00,,,0.00,5.0,meteohub,2013-06-13 10:07:00,
2013-06-13 06:12:00,55.8,54.1,29.80,SSE,159,0.0,0.0,94,0.00,,,0.00,5.0,meteohub,2013-06-13 10:12:00,
2013-06-13 06:17:00,55.8,54.1,29.81,SSE,159,0.0,0.0,94,0.00,,,0.00,7.0,meteohub,2013-06-13 10:17:00,
2013-06-13 06:22:00,55.9,54.3,29.81,SSE,159,0.0,0.0,94,0.00,,,0.00,7.0,meteohub,2013-06-13 10:22:00,
2013-06-13 06:27:00,55.9,54.3,29.81,SSE,159,0.0,0.0,94,0.00,,,0.00,12.0,meteohub,2013-06-13 10:27:00,
2013-06-13 06:32:00,55.9,54.5,29.81,SSE,159,0.0,0.0,95,0.00,,,0.00,14.0,meteohub,2013-06-13 10:32:00,
2013-06-13 06:37:00,55.9,54.5,29.80,SSE,159,0.0,0.0,95,0.01,,,0.01,16.0,meteohub,2013-06-13 10:37:00,
2013-06-13 06:42:00,55.9,54.5,29.80,SSE,159,0.0,0.0,95,0.01,,,0.01,12.0,meteohub,2013-06-13 10:42:00,
2013-06-13 06:47:00,55.9,54.5,29.81,SSE,159,0.0,0.0,95,0.01,,,0.01,9.0,meteohub,2013-06-13 10:47:00,
2013-06-13 06:52:00,55.9,54.5,29.80,SSE,159,0.0,0.0,95,0.01,,,0.01,9.0,meteohub,2013-06-13 10:52:00,
2013-06-13 06:57:00,55.9,54.5,29.80,SSE,159,0.0,0.0,95,0.01,,,0.01,9.0,meteohub,2013-06-13 10:57:00,
2013-06-13 07:02:00,55.8,54.3,29.80,SSE,159,0.0,0.0,95,0.01,,,0.01,12.0,meteohub,2013-06-13 11:02:00,
2013-06-13 07:07:00,55.8,54.7,29.80,SSE,159,0.0,0.0,96,0.01,,,0.01,11.0,meteohub,2013-06-13 11:07:00,
2013-06-13 07:12:00,55.8,54.7,29.79,SSE,159,0.0,0.0,96,0.01,,,0.01,11.0,meteohub,2013-06-13 11:12:00,
2013-06-13 07:17:00,55.8,54.7,29.79,SSE,159,0.0,0.0,96,0.01,,,0.01,12.0,meteohub,2013-06-13 11:17:00,
2013-06-13 07:22:00,55.9,54.9,29.78,SSE,159,0.0,0.0,96,0.02,,,0.02,12.0,meteohub,2013-06-13 11:22:00,
2013-06-13 07:27:00,55.9,54.9,29.78,SSE,159,0.0,0.0,96,0.02,,,0.02,16.0,meteohub,2013-06-13 11:27:00,
2013-06-13 07:32:00,55.9,54.9,29.77,SSE,159,0.0,0.0,96,0.02,,,0.02,19.0,meteohub,2013-06-13 11:32:00,
2013-06-13 07:37:00,55.9,55.0,29.77,SSE,159,0.0,0.0,97,0.01,,,0.02,23.0,meteohub,2013-06-13 11:37:00,
2013-06-13 07:42:00,56.1,55.2,29.77,SSE,159,0.0,0.0,97,0.01,,,0.02,16.0,meteohub,2013-06-13 11:42:00,
2013-06-13 07:47:00,56.1,55.2,29.77,SSE,159,0.0,0.0,97,0.01,,,0.02,16.0,meteohub,2013-06-13 11:47:00,
2013-06-13 07:52:00,56.3,55.4,29.77,SSE,159,0.0,0.0,97,0.01,,,0.02,18.0,meteohub,2013-06-13 11:52:00,
2013-06-13 07:57:00,56.5,55.6,29.77,SSE,159,0.0,0.0,97,0.01,,,0.02,18.0,meteohub,2013-06-13 11:57:00,
2013-06-13 08:02:00,56.7,55.8,29.77,SSE,159,0.0,0.0,97,0.01,,,0.02,19.0,meteohub,2013-06-13 12:02:00,
2013-06-13 08:07:00,56.7,55.8,29.77,SSE,159,0.0,0.0,97,0.02,,,0.03,25.0,meteohub,2013-06-13 12:07:00,
2013-06-13 08:12:00,56.8,55.9,29.77,SSE,159,0.0,0.0,97,0.04,,,0.05,19.0,meteohub,2013-06-13 12:12:00,
2013-06-13 08:17:00,56.8,55.9,29.77,SSE,159,0.0,0.0,97,0.04,,,0.06,25.0,meteohub,2013-06-13 12:17:00,
2013-06-13 08:22:00,57.0,56.5,29.77,SSE,159,0.0,0.0,98,0.05,,,0.07,25.0,meteohub,2013-06-13 12:22:00,
2013-06-13 08:27:00,57.2,56.7,29.77,SSE,159,0.0,0.0,98,0.06,,,0.08,18.0,meteohub,2013-06-13 12:27:00,
2013-06-13 08:32:00,57.4,56.8,29.77,SSE,159,0.0,0.0,98,0.06,,,0.08,28.0,meteohub,2013-06-13 12:32:00,
2013-06-13 08:37:00,57.4,56.8,29.77,SSE,159,0.0,0.0,98,0.07,,,0.09,19.0,meteohub,2013-06-13 12:37:00,
2013-06-13 08:42:00,57.6,57.0,29.77,SSE,159,0.0,0.0,98,0.07,,,0.09,21.0,meteohub,2013-06-13 12:42:00,
2013-06-13 08:47:00,57.6,56.7,29.77,SSE,159,0.0,0.0,97,0.09,,,0.11,33.0,meteohub,2013-06-13 12:47:00,
2013-06-13 08:52:00,57.4,56.5,29.78,SSE,159,0.0,0.0,97,0.12,,,0.14,23.0,meteohub,2013-06-13 12:52:00,
2013-06-13 08:57:00,57.4,56.5,29.78,SSE,159,0.0,0.0,97,0.13,,,0.15,23.0,meteohub,2013-06-13 12:57:00,
2013-06-13 09:02:00,57.4,56.5,29.78,SSE,159,0.0,1.0,97,0.14,,,0.17,11.0,meteohub,2013-06-13 13:02:00,
2013-06-13 09:07:00,57.4,56.5,29.77,SSE,159,0.0,1.0,97,0.14,,,0.18,46.0,meteohub,2013-06-13 13:07:00,
2013-06-13 09:12:00,57.2,56.3,29.77,SSE,159,0.0,1.0,97,0.15,,,0.20,21.0,meteohub,2013-06-13 13:12:00,
2013-06-13 09:17:00,57.0,56.1,29.77,SSE,159,0.0,1.0,97,0.15,,,0.21,37.0,meteohub,2013-06-13 13:17:00,
2013-06-13 09:22:00,57.0,56.1,29.77,SSE,159,0.0,1.0,97,0.15,,,0.22,25.0,meteohub,2013-06-13 13:22:00,
2013-06-13 09:27:00,57.0,56.1,29.77,SSE,158,0.0,1.0,97,0.16,,,0.24,30.0,meteohub,2013-06-13 13:27:00,
2013-06-13 09:32:00,57.0,56.1,29.76,SSE,158,0.0,1.0,97,0.17,,,0.25,49.0,meteohub,2013-06-13 13:32:00,
2013-06-13 09:37:00,57.0,56.1,29.75,SSE,158,1.0,0.0,97,0.17,,,0.26,69.0,meteohub,2013-06-13 13:37:00,
2013-06-13 09:42:00,57.0,56.1,29.75,SSE,156,0.0,2.0,97,0.17,,,0.27,69.0,meteohub,2013-06-13 13:42:00,
2013-06-13 09:47:00,57.0,56.1,29.75,SSE,156,0.0,2.0,97,0.15,,,0.27,60.0,meteohub,2013-06-13 13:47:00,
2013-06-13 09:52:00,57.0,56.1,29.75,SE,138,0.0,2.0,97,0.14,,,0.28,69.0,meteohub,2013-06-13 13:52:00,
2013-06-13 09:57:00,57.0,56.1,29.75,SE,136,0.0,2.0,97,0.13,,,0.29,49.0,meteohub,2013-06-13 13:57:00,
2013-06-13 10:02:00,57.0,56.1,29.75,SE,138,0.0,2.0,97,0.11,,,0.29,40.0,meteohub,2013-06-13 14:02:00,
2013-06-13 10:07:00,57.2,56.7,29.75,South,181,0.0,3.0,98,0.11,,,0.30,44.0,meteohub,2013-06-13 14:07:00,
2013-06-13 10:12:00,57.2,56.7,29.75,South,181,0.0,3.0,98,0.10,,,0.31,51.0,meteohub,2013-06-13 14:12:00,
2013-06-13 10:17:00,57.2,56.3,29.75,South,182,0.0,3.0,97,0.10,,,0.32,35.0,meteohub,2013-06-13 14:17:00,
2013-06-13 10:22:00,57.4,56.8,29.76,South,182,0.0,2.0,98,0.10,,,0.33,19.0,meteohub,2013-06-13 14:22:00,
2013-06-13 10:27:00,57.2,56.3,29.75,South,182,0.0,2.0,97,0.10,,,0.34,42.0,meteohub,2013-06-13 14:27:00,
2013-06-13 10:32:00,57.2,56.3,29.75,South,182,0.0,1.0,97,0.10,,,0.35,28.0,meteohub,2013-06-13 14:32:00,
2013-06-13 10:37:00,57.4,56.8,29.76,South,182,0.0,1.0,98,0.11,,,0.37,30.0,meteohub,2013-06-13 14:37:00,
2013-06-13 10:42:00,57.4,56.8,29.76,South,182,0.0,1.0,98,0.11,,,0.38,26.0,meteohub,2013-06-13 14:42:00,
2013-06-13 10:47:00,57.4,56.8,29.76,South,182,0.0,1.0,98,0.13,,,0.40,40.0,meteohub,2013-06-13 14:47:00,
2013-06-13 10:52:00,57.4,56.8,29.75,South,177,0.0,1.0,98,0.14,,,0.42,53.0,meteohub,2013-06-13 14:52:00,
2013-06-13 10:57:00,57.4,56.5,29.75,South,178,0.0,1.0,97,0.14,,,0.43,46.0,meteohub,2013-06-13 14:57:00,
2013-06-13 11:02:00,57.4,56.5,29.75,South,178,0.0,1.0,97,0.15,,,0.45,23.0,meteohub,2013-06-13 15:02:00,
2013-06-13 11:07:00,57.4,56.5,29.74,South,178,0.0,1.0,97,0.16,,,0.46,60.0,meteohub,2013-06-13 15:07:00,
2013-06-13 11:12:00,57.4,56.8,29.74,South,178,0.0,1.0,98,0.18,,,0.49,35.0,meteohub,2013-06-13 15:12:00,
2013-06-13 11:17:00,57.4,56.8,29.74,South,178,0.0,1.0,98,0.18,,,0.50,28.0,meteohub,2013-06-13 15:17:00,
2013-06-13 11:22:00,57.4,56.5,29.74,South,178,0.0,1.0,97,0.19,,,0.52,32.0,meteohub,2013-06-13 15:22:00,
2013-06-13 11:27:00,57.4,56.5,29.74,South,178,0.0,1.0,97,0.20,,,0.54,26.0,meteohub,2013-06-13 15:27:00,
2013-06-13 11:32:00,57.4,56.8,29.74,South,178,0.0,0.0,98,0.19,,,0.55,23.0,meteohub,2013-06-13 15:32:00,
2013-06-13 11:37:00,57.2,56.3,29.73,South,178,0.0,2.0,97,0.20,,,0.57,46.0,meteohub,2013-06-13 15:37:00,
2013-06-13 11:42:00,57.2,56.3,29.73,South,180,0.0,2.0,97,0.20,,,0.58,39.0,meteohub,2013-06-13 15:42:00,
2013-06-13 11:47:00,57.2,56.7,29.73,South,180,0.0,2.0,98,0.19,,,0.60,47.0,meteohub,2013-06-13 15:47:00,
2013-06-13 11:52:00,57.2,56.7,29.73,South,180,0.0,2.0,98,0.19,,,0.62,40.0,meteohub,2013-06-13 15:52:00,
2013-06-13 11:57:00,57.2,56.7,29.72,South,180,0.0,1.0,98,0.19,,,0.63,53.0,meteohub,2013-06-13 15:57:00,
2013-06-13 12:02:00,57.2,56.7,29.72,South,180,0.0,1.0,98,0.19,,,0.65,33.0,meteohub,2013-06-13 16:02:00,
2013-06-13 12:07:00,57.2,56.7,29.72,South,180,0.0,1.0,98,0.21,,,0.66,35.0,meteohub,2013-06-13 16:07:00,
2013-06-13 12:12:00,57.2,56.7,29.72,South,180,0.0,1.0,98,0.20,,,0.69,58.0,meteohub,2013-06-13 16:12:00,
2013-06-13 12:17:00,57.4,56.8,29.72,South,180,0.0,1.0,98,0.20,,,0.71,30.0,meteohub,2013-06-13 16:17:00,
2013-06-13 12:22:00,57.2,56.7,29.72,South,180,0.0,1.0,98,0.19,,,0.72,21.0,meteohub,2013-06-13 16:22:00,
2013-06-13 12:27:00,57.4,56.8,29.72,South,180,0.0,1.0,98,0.20,,,0.74,23.0,meteohub,2013-06-13 16:27:00,
2013-06-13 12:32:00,57.0,56.1,29.71,South,184,0.0,2.0,97,0.20,,,0.76,39.0,meteohub,2013-06-13 16:32:00,
2013-06-13 12:37:00,57.0,56.1,29.71,South,184,0.0,2.0,97,0.19,,,0.77,28.0,meteohub,2013-06-13 16:37:00,
2013-06-13 12:42:00,57.0,56.5,29.71,South,184,0.0,2.0,98,0.20,,,0.79,19.0,meteohub,2013-06-13 16:42:00,
2013-06-13 12:47:00,57.0,56.5,29.71,South,184,0.0,2.0,98,0.19,,,0.80,16.0,meteohub,2013-06-13 16:47:00,
2013-06-13 12:52:00,57.0,56.5,29.70,South,184,0.0,1.0,98,0.20,,,0.82,18.0,meteohub,2013-06-13 16:52:00,
2013-06-13 12:57:00,56.8,55.9,29.70,South,184,0.0,1.0,97,0.20,,,0.84,16.0,meteohub,2013-06-13 16:57:00,
2013-06-13 13:02:00,56.8,55.9,29.70,South,184,0.0,1.0,97,0.19,,,0.85,12.0,meteohub,2013-06-13 17:02:00,
2013-06-13 13:07:00,56.8,55.9,29.70,South,184,0.0,1.0,97,0.19,,,0.87,12.0,meteohub,2013-06-13 17:07:00,
2013-06-13 13:12:00,56.8,56.3,29.69,South,184,0.0,0.0,98,0.19,,,0.88,25.0,meteohub,2013-06-13 17:12:00,
2013-06-13 13:17:00,56.8,56.3,29.69,South,184,0.0,0.0,98,0.18,,,0.89,18.0,meteohub,2013-06-13 17:17:00,
2013-06-13 13:22:00,56.8,56.3,29.69,South,184,0.0,0.0,98,0.18,,,0.90,21.0,meteohub,2013-06-13 17:22:00,
2013-06-13 13:27:00,56.8,56.3,29.69,South,184,0.0,0.0,98,0.16,,,0.90,26.0,meteohub,2013-06-13 17:27:00,
2013-06-13 13:32:00,56.8,56.3,29.68,South,184,0.0,0.0,98,0.15,,,0.91,18.0,meteohub,2013-06-13 17:32:00,
2013-06-13 13:37:00,56.8,56.3,29.68,South,184,0.0,0.0,98,0.14,,,0.92,14.0,meteohub,2013-06-13 17:37:00,
2013-06-13 13:42:00,56.8,56.3,29.68,South,184,0.0,0.0,98,0.13,,,0.93,25.0,meteohub,2013-06-13 17:42:00,
2013-06-13 13:47:00,56.8,56.3,29.68,South,184,0.0,1.0,98,0.12,,,0.93,26.0,meteohub,2013-06-13 17:47:00,
2013-06-13 13:52:00,56.8,56.3,29.68,South,184,0.0,1.0,98,0.10,,,0.93,26.0,meteohub,2013-06-13 17:52:00,
2013-06-13 13:57:00,56.8,56.3,29.67,South,184,0.0,1.0,98,0.08,,,0.93,21.0,meteohub,2013-06-13 17:57:00,
2013-06-13 14:02:00,56.8,56.3,29.67,South,184,0.0,1.0,98,0.07,,,0.93,19.0,meteohub,2013-06-13 18:02:00,
2013-06-13 14:07:00,56.8,56.3,29.67,South,184,0.0,1.0,98,0.06,,,0.93,18.0,meteohub,2013-06-13 18:07:00,
2013-06-13 14:12:00,56.8,56.3,29.67,South,184,0.0,0.0,98,0.05,,,0.93,21.0,meteohub,2013-06-13 18:12:00,
2013-06-13 14:17:00,56.8,56.3,29.67,South,184,0.0,0.0,98,0.04,,,0.93,25.0,meteohub,2013-06-13 18:17:00,
2013-06-13 14:22:00,57.0,56.5,29.67,South,184,0.0,0.0,98,0.03,,,0.93,25.0,meteohub,2013-06-13 18:22:00,
2013-06-13 14:27:00,56.8,56.3,29.67,South,184,0.0,0.0,98,0.02,,,0.93,19.0,meteohub,2013-06-13 18:27:00,
2013-06-13 14:32:00,56.8,56.3,29.67,South,184,0.0,0.0,98,0.03,,,0.94,21.0,meteohub,2013-06-13 18:32:00,
2013-06-13 14:37:00,56.8,56.3,29.67,South,184,0.0,0.0,98,0.02,,,0.94,26.0,meteohub,2013-06-13 18:37:00,
2013-06-13 14:42:00,56.8,56.3,29.67,South,184,0.0,0.0,98,0.02,,,0.95,32.0,meteohub,2013-06-13 18:42:00,
2013-06-13 14:47:00,56.8,56.3,29.67,South,184,0.0,0.0,98,0.03,,,0.96,35.0,meteohub,2013-06-13 18:47:00,
2013-06-13 14:52:00,56.8,56.3,29.67,South,184,0.0,0.0,98,0.04,,,0.97,26.0,meteohub,2013-06-13 18:52:00,
2013-06-13 14:57:00,56.8,56.3,29.67,South,184,0.0,0.0,98,0.05,,,0.98,33.0,meteohub,2013-06-13 18:57:00,
2013-06-13 15:02:00,56.8,56.3,29.66,South,184,0.0,0.0,98,0.06,,,0.99,35.0,meteohub,2013-06-13 19:02:00,
2013-06-13 15:07:00,56.8,56.3,29.66,South,184,0.0,0.0,98,0.07,,,0.99,42.0,meteohub,2013-06-13 19:07:00,
2013-06-13 15:12:00,56.8,56.3,29.67,South,184,0.0,0.0,98,0.07,,,1.00,32.0,meteohub,2013-06-13 19:12:00,
2013-06-13 15:17:00,56.8,56.3,29.67,South,184,0.0,0.0,98,0.08,,,1.01,28.0,meteohub,2013-06-13 19:17:00,
2013-06-13 15:22:00,56.8,56.3,29.67,South,184,0.0,0.0,98,0.08,,,1.01,23.0,meteohub,2013-06-13 19:22:00,
2013-06-13 15:27:00,56.8,56.3,29.67,South,184,0.0,0.0,98,0.09,,,1.02,21.0,meteohub,2013-06-13 19:27:00,
2013-06-13 15:32:00,56.8,56.3,29.68,South,184,0.0,0.0,98,0.09,,,1.03,19.0,meteohub,2013-06-13 19:32:00,
2013-06-13 15:37:00,56.8,56.3,29.68,South,184,0.0,0.0,98,0.10,,,1.04,33.0,meteohub,2013-06-13 19:37:00,
2013-06-13 15:42:00,56.8,56.3,29.67,South,184,0.0,0.0,98,0.10,,,1.05,40.0,meteohub,2013-06-13 19:42:00,
2013-06-13 15:48:00,57.0,56.5,29.68,South,184,0.0,0.0,98,0.09,,,1.05,30.0,meteohub,2013-06-13 19:48:00,
2013-06-13 15:53:00,57.0,56.5,29.68,South,184,0.0,0.0,98,0.10,,,1.07,32.0,meteohub,2013-06-13 19:53:00,
2013-06-13 15:58:00,57.0,56.5,29.68,South,184,0.0,0.0,98,0.11,,,1.08,30.0,meteohub,2013-06-13 19:58:00,
2013-06-13 16:03:00,57.0,56.5,29.68,South,184,0.0,0.0,98,0.11,,,1.10,19.0,meteohub,2013-06-13 20:03:00,
2013-06-13 16:08:00,57.0,56.5,29.68,South,184,0.0,1.0,98,0.12,,,1.12,35.0,meteohub,2013-06-13 20:08:00,
2013-06-13 16:13:00,57.0,56.5,29.68,South,184,0.0,1.0,98,0.12,,,1.13,54.0,meteohub,2013-06-13 20:13:00,
2013-06-13 16:18:00,57.0,56.5,29.68,South,184,0.0,1.0,98,0.14,,,1.15,46.0,meteohub,2013-06-13 20:18:00,
2013-06-13 16:23:00,57.2,56.7,29.68,South,184,0.0,1.0,98,0.15,,,1.17,39.0,meteohub,2013-06-13 20:23:00,
2013-06-13 16:28:00,57.2,56.7,29.68,South,184,0.0,1.0,98,0.16,,,1.18,39.0,meteohub,2013-06-13 20:28:00,
2013-06-13 16:33:00,57.0,56.5,29.68,South,184,0.0,1.0,98,0.17,,,1.20,51.0,meteohub,2013-06-13 20:33:00,
2013-06-13 16:38:00,57.0,56.5,29.68,South,184,0.0,1.0,98,0.18,,,1.22,67.0,meteohub,2013-06-13 20:38:00,
2013-06-13 16:43:00,57.0,56.5,29.68,South,184,0.0,1.0,98,0.18,,,1.23,35.0,meteohub,2013-06-13 20:43:00,
2013-06-13 16:49:00,57.2,56.7,29.68,South,184,0.0,1.0,98,0.19,,,1.25,49.0,meteohub,2013-06-13 20:49:00,
2013-06-13 16:54:00,57.2,56.7,29.67,South,184,0.0,1.0,98,0.18,,,1.25,47.0,meteohub,2013-06-13 20:54:00,
2013-06-13 16:59:00,57.0,56.5,29.67,South,184,0.0,1.0,98,0.18,,,1.27,49.0,meteohub,2013-06-13 20:59:00,
2013-06-13 17:04:00,57.0,56.5,29.67,South,184,0.0,1.0,98,0.17,,,1.28,28.0,meteohub,2013-06-13 21:04:00,
2013-06-13 17:09:00,57.0,56.5,29.67,South,184,0.0,1.0,98,0.17,,,1.29,18.0,meteohub,2013-06-13 21:09:00,
2013-06-13 17:14:00,57.2,56.7,29.67,SE,125,0.0,1.0,98,0.16,,,1.30,26.0,meteohub,2013-06-13 21:14:00,
2013-06-13 17:19:00,57.0,56.5,29.67,South,177,0.0,1.0,98,0.15,,,1.31,35.0,meteohub,2013-06-13 21:19:00,
2013-06-13 17:24:00,57.0,56.5,29.67,South,177,0.0,2.0,98,0.15,,,1.32,23.0,meteohub,2013-06-13 21:24:00,
2013-06-13 17:29:00,56.8,56.3,29.67,SE,128,0.0,2.0,98,0.14,,,1.33,33.0,meteohub,2013-06-13 21:29:00,
2013-06-13 17:34:00,56.8,56.3,29.66,SE,128,0.0,3.0,98,0.14,,,1.34,33.0,meteohub,2013-06-13 21:34:00,
2013-06-13 17:39:00,56.8,56.3,29.66,SE,128,1.0,3.0,98,0.14,,,1.36,39.0,meteohub,2013-06-13 21:39:00,
2013-06-13 17:44:00,56.8,56.3,29.67,SE,128,0.0,3.0,98,0.12,,,1.36,46.0,meteohub,2013-06-13 21:44:00,
2013-06-13 17:50:00,56.7,56.1,29.67,SE,143,0.0,2.0,98,0.12,,,1.37,33.0,meteohub,2013-06-13 21:50:00,
2013-06-13 17:55:00,56.7,56.1,29.67,SE,143,0.0,3.0,98,0.12,,,1.38,26.0,meteohub,2013-06-13 21:55:00,
2013-06-13 18:00:00,56.7,56.1,29.67,SE,143,0.0,3.0,98,0.12,,,1.40,30.0,meteohub,2013-06-13 22:00:00,
2013-06-13 18:05:00,56.5,55.9,29.67,SE,140,0.0,2.0,98,0.12,,,1.41,35.0,meteohub,2013-06-13 22:05:00,
2013-06-13 18:10:00,56.5,55.9,29.67,SE,140,0.0,2.0,98,0.11,,,1.41,35.0,meteohub,2013-06-13 22:10:00,
2013-06-13 18:15:00,56.5,55.9,29.67,SE,140,0.0,1.0,98,0.11,,,1.42,26.0,meteohub,2013-06-13 22:15:00,
2013-06-13 18:20:00,56.5,55.9,29.67,SE,140,0.0,1.0,98,0.09,,,1.42,26.0,meteohub,2013-06-13 22:20:00,
2013-06-13 18:25:00,56.5,55.9,29.66,SSW,192,0.0,2.0,98,0.09,,,1.43,32.0,meteohub,2013-06-13 22:25:00,
2013-06-13 18:30:00,56.3,55.8,29.67,SSW,192,0.0,2.0,98,0.09,,,1.44,33.0,meteohub,2013-06-13 22:30:00,
2013-06-13 18:35:00,56.1,55.6,29.67,SSW,192,0.0,2.0,98,0.08,,,1.44,25.0,meteohub,2013-06-13 22:35:00,
2013-06-13 18:40:00,56.1,55.6,29.67,SSW,192,0.0,1.0,98,0.08,,,1.45,25.0,meteohub,2013-06-13 22:40:00,
2013-06-13 18:45:00,56.1,55.6,29.67,SSW,192,0.0,0.0,98,0.07,,,1.45,21.0,meteohub,2013-06-13 22:45:00,
2013-06-13 18:50:00,56.1,55.6,29.66,SSW,192,0.0,0.0,98,0.06,,,1.45,21.0,meteohub,2013-06-13 22:50:00,
2013-06-13 18:56:00,55.9,55.4,29.66,SSW,192,0.0,0.0,98,0.06,,,1.45,18.0,meteohub,2013-06-13 22:56:00,
2013-06-13 19:01:00,55.9,55.4,29.66,SSW,192,0.0,0.0,98,0.06,,,1.46,14.0,meteohub,2013-06-13 23:01:00,
2013-06-13 19:06:00,55.8,55.2,29.66,SSW,192,0.0,0.0,98,0.05,,,1.46,14.0,meteohub,2013-06-13 23:06:00,
2013-06-13 19:11:00,55.8,55.2,29.66,SSW,192,1.0,0.0,98,0.04,,,1.46,16.0,meteohub,2013-06-13 23:11:00,
2013-06-13 19:16:00,55.8,55.2,29.66,SSW,192,0.0,1.0,98,0.04,,,1.46,14.0,meteohub,2013-06-13 23:16:00,
2013-06-13 19:21:00,55.8,55.2,29.66,SSW,192,0.0,1.0,98,0.03,,,1.46,12.0,meteohub,2013-06-13 23:21:00,
2013-06-13 19:26:00,55.8,55.2,29.67,SSW,192,0.0,1.0,98,0.03,,,1.46,11.0,meteohub,2013-06-13 23:26:00,
2013-06-13 19:31:00,55.6,55.0,29.67,South,173,0.0,1.0,98,0.02,,,1.46,11.0,meteohub,2013-06-13 23:31:00,
2013-06-13 19:36:00,55.6,55.0,29.66,South,173,0.0,1.0,98,0.02,,,1.46,7.0,meteohub,2013-06-13 23:36:00,
2013-06-13 19:41:00,55.6,55.0,29.67,South,173,0.0,1.0,98,0.01,,,1.46,9.0,meteohub,2013-06-13 23:41:00,
2013-06-13 19:46:00,55.6,55.0,29.67,South,173,0.0,1.0,98,0.02,,,1.47,7.0,meteohub,2013-06-13 23:46:00,
2013-06-13 19:51:00,55.4,54.9,29.67,South,173,0.0,1.0,98,0.02,,,1.47,5.0,meteohub,2013-06-13 23:51:00,
2013-06-13 19:57:00,55.4,54.9,29.67,East,86,0.0,2.0,98,0.01,,,1.47,7.0,meteohub,2013-06-13 23:57:00,
2013-06-13 20:02:00,55.2,54.7,29.67,ESE,120,1.0,2.0,98,0.01,,,1.47,7.0,meteohub,2013-06-14 00:02:00,
2013-06-13 20:07:00,55.2,54.7,29.67,ESE,120,0.0,2.0,98,0.01,,,1.47,5.0,meteohub,2013-06-14 00:07:00,
2013-06-13 20:12:00,55.2,54.7,29.67,ESE,120,0.0,2.0,98,0.01,,,1.47,0.0,meteohub,2013-06-14 00:12:00,
2013-06-13 20:17:00,55.0,54.5,29.67,ESE,120,0.0,1.0,98,0.01,,,1.47,0.0,meteohub,2013-06-14 00:17:00,
2013-06-13 20:22:00,55.0,54.5,29.67,ENE,66,0.0,3.0,98,0.02,,,1.48,0.0,meteohub,2013-06-14 00:22:00,
2013-06-13 20:27:00,55.0,54.5,29.67,ENE,76,1.0,6.0,98,0.02,,,1.48,0.0,meteohub,2013-06-14 00:27:00,
2013-06-13 20:32:00,55.0,54.5,29.68,East,90,0.0,6.0,98,0.02,,,1.48,0.0,meteohub,2013-06-14 00:32:00,
2013-06-13 20:37:00,55.0,54.5,29.67,East,81,0.0,6.0,98,0.02,,,1.48,0.0,meteohub,2013-06-14 00:37:00,
2013-06-13 20:42:00,55.0,54.5,29.67,East,81,0.0,7.0,98,0.01,,,1.48,0.0,meteohub,2013-06-14 00:42:00,
2013-06-13 20:47:00,55.0,54.5,29.67,East,84,0.0,7.0,98,0.02,,,1.49,0.0,meteohub,2013-06-14 00:47:00,
2013-06-13 20:52:00,55.0,54.5,29.67,East,84,0.0,7.0,98,0.02,,,1.49,0.0,meteohub,2013-06-14 00:52:00,
2013-06-13 20:57:00,55.0,54.5,29.67,East,84,0.0,1.0,98,0.02,,,1.49,0.0,meteohub,2013-06-14 00:57:00,
2013-06-13 21:02:00,55.0,54.5,29.67,East,92,0.0,2.0,98,0.02,,,1.49,0.0,meteohub,2013-06-14 01:02:00,
2013-06-13 21:07:00,55.0,54.5,29.67,East,88,0.0,2.0,98,0.02,,,1.49,0.0,meteohub,2013-06-14 01:07:00,
2013-06-13 21:12:00,54.9,54.3,29.67,East,92,0.0,5.0,98,0.03,,,1.50,0.0,meteohub,2013-06-14 01:12:00,
2013-06-13 21:17:00,54.9,54.3,29.67,East,92,0.0,5.0,98,0.02,,,1.50,0.0,meteohub,2013-06-14 01:17:00,
2013-06-13 21:22:00,54.9,54.3,29.68,East,92,1.0,1.0,98,0.02,,,1.50,0.0,meteohub,2013-06-14 01:22:00,
2013-06-13 21:27:00,54.9,54.3,29.68,East,92,0.0,1.0,98,0.02,,,1.50,0.0,meteohub,2013-06-14 01:27:00,
2013-06-13 21:32:00,54.9,54.3,29.68,East,92,0.0,1.0,98,0.02,,,1.50,0.0,meteohub,2013-06-14 01:32:00,
2013-06-13 21:37:00,54.9,54.3,29.68,East,92,0.0,1.0,98,0.03,,,1.51,0.0,meteohub,2013-06-14 01:37:00,
2013-06-13 21:42:00,54.9,54.3,29.68,East,92,0.0,1.0,98,0.02,,,1.51,0.0,meteohub,2013-06-14 01:42:00,
2013-06-13 21:47:00,54.9,54.3,29.68,East,92,0.0,1.0,98,0.03,,,1.52,0.0,meteohub,2013-06-14 01:47:00,
2013-06-13 21:52:00,54.9,54.3,29.68,SE,127,0.0,1.0,98,0.04,,,1.53,0.0,meteohub,2013-06-14 01:52:00,
2013-06-13 21:57:00,54.9,54.3,29.68,East,100,0.0,5.0,98,0.04,,,1.53,0.0,meteohub,2013-06-14 01:57:00,
2013-06-13 22:02:00,54.9,54.3,29.68,East,100,0.0,5.0,98,0.05,,,1.54,0.0,meteohub,2013-06-14 02:02:00,
2013-06-13 22:07:00,54.9,54.3,29.68,WNW,285,1.0,5.0,98,0.06,,,1.55,0.0,meteohub,2013-06-14 02:07:00,
2013-06-13 22:12:00,54.9,54.3,29.68,West,269,0.0,3.0,98,0.05,,,1.55,0.0,meteohub,2013-06-14 02:12:00,
2013-06-13 22:17:00,54.9,54.3,29.68,West,269,0.0,3.0,98,0.06,,,1.56,0.0,meteohub,2013-06-14 02:17:00,
2013-06-13 22:22:00,54.7,54.1,29.68,WSW,252,0.0,3.0,98,0.07,,,1.57,0.0,meteohub,2013-06-14 02:22:00,
2013-06-13 22:27:00,54.7,54.1,29.68,WSW,246,0.0,1.0,98,0.07,,,1.57,0.0,meteohub,2013-06-14 02:27:00,
2013-06-13 22:32:00,54.7,54.1,29.68,SW,227,0.0,1.0,98,0.08,,,1.58,0.0,meteohub,2013-06-14 02:32:00,
2013-06-13 22:37:00,54.7,54.1,29.68,SW,227,0.0,1.0,98,0.07,,,1.58,0.0,meteohub,2013-06-14 02:37:00,
2013-06-13 22:42:00,54.3,53.8,29.68,SW,226,0.0,1.0,98,0.07,,,1.58,0.0,meteohub,2013-06-14 02:42:00,
2013-06-13 22:47:00,54.3,53.8,29.68,SW,227,0.0,1.0,98,0.07,,,1.59,0.0,meteohub,2013-06-14 02:47:00,
2013-06-13 22:52:00,54.1,53.6,29.68,SW,227,0.0,1.0,98,0.06,,,1.59,0.0,meteohub,2013-06-14 02:52:00,
2013-06-13 22:57:00,54.1,53.6,29.68,ESE,117,0.0,3.0,98,0.07,,,1.60,0.0,meteohub,2013-06-14 02:57:00,
2013-06-13 23:02:00,54.1,53.6,29.68,SE,132,0.0,3.0,98,0.07,,,1.60,0.0,meteohub,2013-06-14 03:02:00,
2013-06-13 23:07:00,54.1,53.6,29.68,NE,53,0.0,3.0,98,0.06,,,1.61,0.0,meteohub,2013-06-14 03:07:00,
2013-06-13 23:12:00,54.1,53.6,29.67,NE,53,0.0,3.0,98,0.07,,,1.62,0.0,meteohub,2013-06-14 03:12:00,
2013-06-13 23:17:00,54.0,53.4,29.67,SE,126,0.0,3.0,98,0.07,,,1.63,0.0,meteohub,2013-06-14 03:17:00,
2013-06-13 23:22:00,54.0,53.4,29.67,ESE,115,0.0,8.0,98,0.07,,,1.64,0.0,meteohub,2013-06-14 03:22:00,
2013-06-13 23:27:00,54.0,53.4,29.67,ESE,114,0.0,8.0,98,0.08,,,1.65,0.0,meteohub,2013-06-14 03:27:00,
2013-06-13 23:32:00,54.0,53.4,29.68,ENE,71,0.0,1.0,98,0.08,,,1.66,0.0,meteohub,2013-06-14 03:32:00,
2013-06-13 23:37:00,54.0,53.4,29.68,ESE,117,1.0,4.0,98,0.09,,,1.67,0.0,meteohub,2013-06-14 03:37:00,
2013-06-13 23:42:00,53.8,53.2,29.68,East,94,0.0,4.0,98,0.09,,,1.68,0.0,meteohub,2013-06-14 03:42:00,
2013-06-13 23:47:00,53.8,53.2,29.68,East,101,0.0,4.0,98,0.10,,,1.69,0.0,meteohub,2013-06-14 03:47:00,
2013-06-13 23:52:00,53.6,53.1,29.68,North,0,0.0,4.0,98,0.10,,,1.70,0.0,meteohub,2013-06-14 03:52:00,
2013-06-13 23:57:00,53.4,52.9,29.68,NE,36,0.0,6.0,98,0.11,,,1.71,0.0,meteohub,2013-06-14 03:57:00,